This demonstration page uses our WeatherBlox Daily Observations layout. Learn more.

Left ArrowRight Arrow

Hourly Observations for March 3, 2016

Temp ( °F °C ) Dew Point ( °F °C ) Humidity (%) Winds ( mph kmh ) Pressure ( in mb ) Visibility ( mi km ) Precip ( " mm )
12:53 am 00:53 Cloudy 28 -2.2 21 -6.1 75 75 E 3 6 30.19 1023 10 16 N/A
1:53 am 01:53 Cloudy 30 -1.1 23 -5 75 75 E 3 6 30.20 1023 10 16 N/A
2:53 am 02:53 Mostly Cloudy 30 -1.1 20 -6.7 66 66 E 5 7 30.19 1022 10 16 N/A
3:53 am 03:53 Cloudy 30 -1.1 22 -5.6 72 72 E 5 7 30.16 1021 10 16 N/A
4:53 am 04:53 Cloudy 32 undefined 21 -6.1 64 64 SE 5 7 30.15 1021 10 16 N/A
5:53 am 05:53 Cloudy 32 undefined 24 -4.4 73 73 VRB 3 6 30.15 1021 10 16 N/A
6:53 am 06:53 Cloudy with Light Snow 32 undefined 25 -3.9 75 75 N N/A 30.17 1022 6 10 N/A
7:27 am 07:27 Cloudy with Light Snow 32 undefined 27 -2.8 82 82 N N/A 30.18 1022 2 3 N/A
7:34 am 07:34 Cloudy with Light Snow 32 undefined 27 -2.8 82 82 N N/A 30.18 1022 2 3 N/A
7:42 am 07:42 Cloudy with Light Snow 32 undefined 28 -2.2 85 85 E 6 9 30.18 1022 3 4 N/A
7:49 am 07:49 Cloudy with Light Snow 30 -1 28 -2 93 93 E 6 9 30.18 1022 3 5 N/A
7:53 am 07:53 Cloudy with Light Snow 31 -0.6 28 -2.2 89 89 E 6 9 30.16 1021 3 5 N/A
8:05 am 08:05 Cloudy with Light Snow 31 -0.6 28 -2.2 89 89 E 6 9 30.15 1021 2 3 N/A
8:21 am 08:21 Cloudy with Mist and Fog 32 undefined 28 -2.2 85 85 ESE 5 7 30.15 1021 5 8 N/A
8:53 am 08:53 Cloudy with Light Snow 33 0.6 29 -1.7 85 85 VRB 3 6 30.15 1021 4 6 N/A
9:03 am 09:03 Cloudy with Light Snow 33 0.6 29 -1.7 85 85 N N/A 30.18 1022 3 5 N/A
9:17 am 09:17 Cloudy with Light Snow 33 0.6 29 -1.7 85 85 VRB 5 7 30.15 1021 2 3 N/A
9:32 am 09:32 Cloudy with Light Snow 33 0.6 29 -1.7 85 85 VRB 5 7 30.15 1021 2 2 N/A
9:39 am 09:39 Cloudy with Light Snow 33 0.6 30 -1.1 89 89 SSE 6 9 30.15 1021 2 3 N/A
9:51 am 09:51 Cloudy with Light Snow 34 1 30 -1 87 87 N N/A 30.15 1021 4 6 N/A
9:53 am 09:53 Cloudy with Light Snow 33 0.6 30 -1.1 89 89 SE 3 6 30.15 1021 4 6 N/A
10:01 am 10:01 Cloudy with Light Snow 34 1.1 30 -1.1 85 85 ESE 5 7 30.15 1021 4 6 N/A
10:37 am 10:37 Cloudy 36 2.2 30 -1.1 79 79 VRB 6 9 30.12 1020 10 16 N/A
10:53 am 10:53 Cloudy 36 2.2 30 -1.1 79 79 VRB 5 7 30.13 1020 10 16 N/A
11:53 am 11:53 Cloudy with Light Snow 37 2.8 30 -1.1 76 76 SSE 8 13 30.12 1020 7 11 N/A
12:14 pm 12:14 Cloudy with Light Snow 35 1.7 31 -0.6 85 85 VRB 6 9 30.12 1020 3 4 0.01 0.25
12:20 pm 12:20 Cloudy with Light Snow 35 1.7 31 -0.6 85 85 S 6 9 30.12 1020 2 3 0.01 0.25
12:40 pm 12:40 Cloudy with Light Snow 34 1.1 29 -1.7 82 82 S 5 7 30.12 1020 1 2 0.02 0.51
12:53 pm 12:53 Cloudy with Light Snow 34 1.1 29 -1.7 82 82 S 5 7 30.11 1020 1 2 0.03 0.76
12:59 pm 12:59 Cloudy with Light Snow 34 1.1 29 -1.7 82 82 VRB 5 7 30.12 1020 1 2 N/A
1:19 pm 13:19 Cloudy with Light Snow 34 1.1 30 -1.1 85 85 VRB 6 9 30.12 1020 2 3 0.01 0.25
1:29 pm 13:29 Cloudy with Light Snow 34 1.1 30 -1.1 85 85 VRB 6 9 30.12 1020 2 2 0.02 0.51
1:53 pm 13:53 Cloudy with Light Snow 34 1.1 31 -0.6 89 89 S 5 7 30.09 1019 1 1 0.03 0.76
2:01 pm 14:01 Cloudy with Light Snow 34 1.1 29 -1.7 82 82 SSE 5 7 30.12 1020 1 2 0.01 0.25
2:08 pm 14:08 Cloudy with Light Snow 34 1.1 31 -0.6 89 89 N N/A 30.12 1020 1 1 0.02 0.51
2:19 pm 14:19 Cloudy with Light Snow 34 1.1 30 -1.1 85 85 N N/A 30.12 1020 1 2 0.03 0.76
2:37 pm 14:37 Cloudy with Light Snow 35 1.7 30 -1.1 82 82 VRB 3 6 30.09 1019 2 2 0.03 0.76
2:39 pm 14:39 Cloudy with Light Snow 35 1.7 30 -1.1 82 82 VRB 5 7 30.09 1019 2 3 0.03 0.76
2:53 pm 14:53 Cloudy with Light Snow 35 1.7 31 -0.6 85 85 SSE 5 7 30.07 1018 2 3 0.04 1.02
3:01 pm 15:01 Cloudy with Light Snow 35 1.7 31 -0.6 85 85 VRB 3 6 30.09 1019 2 3 N/A
3:08 pm 15:08 Cloudy with Light Snow 34 1.1 31 -0.6 89 89 SE 5 7 30.12 1020 2 3 0.01 0.25
3:14 pm 15:14 Cloudy with Light Snow 35 1.7 30 -1.1 82 82 SE 3 6 30.06 1018 2 3 0.01 0.25
3:20 pm 15:20 Cloudy with Light Snow 35 1.7 30 -1.1 82 82 SE 5 7 30.06 1018 2 3 0.01 0.25
3:53 pm 15:53 Cloudy with Light Snow 34 1.1 31 -0.6 89 89 ESE 6 9 30.05 1018 2 2 0.02 0.51
4:04 pm 16:04 Cloudy with Light Snow 34 1.1 31 -0.6 89 89 ESE 5 7 30.09 1019 2 3 0.01 0.25
4:15 pm 16:15 Cloudy with Light Snow 35 1.7 31 -0.6 85 85 E 5 7 30.06 1018 3 5 0.01 0.25
4:27 pm 16:27 Cloudy with Light Snow 34 1.1 32 undefined 92 92 ESE 6 9 30.09 1019 3 4 0.01 0.25
4:35 pm 16:35 Cloudy with Light Snow 34 1.1 31 -0.6 89 89 E 5 7 30.09 1019 3 4 0.01 0.25
4:46 pm 16:46 Cloudy with Light Snow 35 1.7 31 -0.6 85 85 E 6 9 30.06 1018 4 6 0.02 0.51
4:53 pm 16:53 Cloudy with Light Snow 35 1.7 32 undefined 89 89 ESE 3 6 30.03 1017 5 8 0.02 0.51
5:00 pm 17:00 Cloudy with Light Snow 35 1.7 31 -0.6 85 85 E 6 9 30.03 1017 3 5 N/A
5:12 pm 17:12 Cloudy with Light Snow 35 1.7 31 -0.6 85 85 ESE 5 7 30.03 1017 5 8 N/A
5:25 pm 17:25 Cloudy with Light Rain 35 1.7 31 -0.6 85 85 ESE 5 7 30.03 1017 6 10 0.01 0.25
5:53 pm 17:53 Cloudy with Light Rain 35 1.7 32 undefined 89 89 VRB 3 6 30.04 1017 8 13 0.01 0.25
6:53 pm 18:53 Cloudy 35 1.7 31 -0.6 85 85 VRB 3 6 30.05 1018 10 16 N/A
7:53 pm 19:53 Cloudy 35 1.7 31 -0.6 85 85 VRB 3 6 30.05 1018 9 14 N/A
8:53 pm 20:53 Cloudy 35 1.7 30 -1.1 82 82 N N/A 30.06 1018 8 13 N/A
9:53 pm 21:53 Cloudy with Mist and Fog 35 1.7 32 undefined 89 89 VRB 3 6 30.06 1018 5 8 N/A
10:53 pm 22:53 Cloudy 35 1.7 32 undefined 89 89 N N/A 30.05 1018 8 13 N/A
11:11 pm 23:11 Cloudy 36 2.2 34 1.1 93 93 S 3 6 30.06 1018 9 14 N/A
11:29 pm 23:29 Cloudy 36 2.2 33 0.6 89 89 S 5 7 30.06 1018 10 16 N/A
11:53 pm 23:53 Cloudy 35 1.7 33 0.6 93 93 SW 5 7 30.05 1018 10 16 N/A

Powered by AerisWeather